[[{"header":{"parameterUnit":"m.s-1","parameterCategory":1,"la1":30.2991,"la2":30.254,"lo1":-89.0895,"lo2":-89.0444,"dy":0.0017,"dx":0.0017,"nx":28,"ny":28,"refTime":"2024-09-27T21:00:00:Z","depth":0,"parameterNumber":2,"parameterNumberName":"U-component_of_WINDS"},"data":[0,0,0,0,0,0,0,0,0,0,0,0,0,0,0,0,0,0,0,0,0,0,0,0,0,0,0,0,0,0,0,0,0,0,0,0,0,0,0,0,0,0,0,0,0,0,0,0,0,0,0,0,0,0,0,0,0,0,4.9632,4.9635,0,4.9853,4.9855,4.9858,4.9805,4.9801,4.9797,4.9793,5.0022,5.0032,5.0042,0,0,0,0,0,0,0,0,0,0,0,0,0,4.9167,4.9176,4.9632,4.9635,4.9638,4.9852,4.9855,4.9858,4.9806,4.9801,4.9796,4.9791,5.0019,5.0031,5.0043,0,0,0,0,0,0,0,0,0,0,0,0,0,4.9377,4.9179,4.9632,4.9637,4.964,4.9852,4.9855,4.9859,4.9807,4.9801,4.9794,4.9788,5.0015,5.003,5.0045,5.0266,0,0,5.0091,5.0098,0,0,0,0,0,0,0,0,4.9365,4.9394,4.9634,4.9637,4.9641,4.9795,4.9776,4.9996,4.9809,4.9744,4.9792,4.9785,4.9952,4.9972,5.0027,5.0277,5.0286,5.0092,5.0101,5.0108,5.0112,0,0,0,0,0,0,0,4.935,4.9384,4.9719,4.9637,4.9641,4.9629,4.9652,4.9817,4.9881,4.9749,4.9745,4.9772,4.9953,5.0013,5.0032,5.029,5.0092,5.0105,5.0115,5.0121,5.0728,5.0735,0,0,0,0,0,0,4.9333,4.9372,4.9712,4.9726,4.9484,4.9643,4.9668,4.9752,4.9879,4.9892,4.9777,4.9769,4.999,5.0015,5.004,5.0305,5.0108,5.0122,5.0131,5.0721,5.073,5.0737,0,0,0,0,0,0,4.9323,4.9363,4.9703,4.9548,4.9591,4.9657,4.9752,4.976,4.982,4.9901,4.9912,4.9827,4.9986,5.0019,5.0209,5.0312,5.0129,5.0143,5.0713,5.0724,5.0733,5.0837,0,0,0,0,0,0,4.931,4.936,4.9445,4.9551,4.9599,4.9868,4.9758,4.9768,4.9845,4.9836,4.995,4.9963,4.9984,5.0187,5.0224,5.033,5.0154,5.0704,5.0717,5.073,5.0825,5.085,5.0872,0,0,0,0,0,4.9293,4.9467,4.9449,4.9491,4.9706,4.9874,4.9902,4.9921,4.9854,4.9939,4.9991,4.9959,5.0295,5.0207,5.0248,5.036,5.0697,5.0714,5.0729,5.0814,5.0845,5.0871,0,0,0,0,0,0,4.9373,4.9481,4.9463,4.9675,4.9766,4.9865,4.9973,4.9954,5.0067,5.0054,5.0074,5.01,5.0293,5.0346,5.0246,5.0579,5.0486,5.0511,5.0537,5.0567,5.059,5.0572,5.0167,0,0,0,0,0,4.9415,4.9542,4.963,4.9809,4.9855,4.9907,4.9981,4.9988,5.0083,5.0121,5.0187,5.0281,5.0407,5.0491,5.0612,5.0833,5.0855,5.093,5.0953,5.0972,5.0993,5.1111,5.1144,5.0789,5.0789,5.0789,0,0,4.9504,4.9579,4.9658,4.9827,4.9898,5.0029,4.9939,5.0083,5.018,5.0143,5.0325,5.0377,5.0484,5.0689,5.0783,5.0739,5.1096,5.0992,5.1007,5.1017,5.113,5.1164,5.1194,5.08,5.0798,5.0796,0,0,4.9732,4.9802,4.9957,5.003,5.0137,5.017,5.0207,5.031,5.0341,5.0524,5.0499,5.0615,5.0834,5.0909,5.0977,5.1231,5.1205,5.127,5.1392,5.1506,5.1534,5.1559,5.1647,5.1679,5.1291,5.1291,5.1292,0,4.9829,5.0025,5.004,5.0185,5.0259,5.023,5.0387,5.0457,5.06,5.0652,5.06,5.0871,5.0941,5.1162,5.1224,5.1281,5.1323,5.1257,5.1529,5.1554,5.1577,5.1662,5.1695,5.1298,5.1298,5.1297,5.1296,0,5.0137,5.0273,5.0386,5.0521,5.0609,5.0759,5.0797,5.0884,5.0883,5.0921,5.1106,5.1189,5.1325,5.1378,5.138,5.16,5.1569,5.1523,5.143,5.1618,5.1697,5.173,5.1308,5.1306,5.1304,5.1302,0,0,5.0422,5.0562,5.0603,5.0663,5.0779,5.0884,5.1033,5.1164,5.1237,5.1336,5.146,5.1644,5.1601,5.1678,5.1688,5.1789,5.1981,5.173,5.1733,5.1772,5.2225,5.2257,5.2294,5.1965,5.1972,5.1977,5.2215,0,5.0659,5.0918,5.0936,5.1171,5.1295,5.1269,5.1398,5.1483,5.1522,5.1634,5.1678,5.1806,5.1742,5.1787,5.1886,5.1937,5.2072,5.192,5.208,5.2085,5.2052,5.2336,5.2371,5.2592,5.2247,5.2252,5.2256,0,5.0969,5.1074,5.1321,5.1416,5.1469,5.1585,5.1704,5.1812,5.1907,5.1929,5.2013,5.2008,5.2159,5.2062,5.2271,5.2167,5.2233,5.2268,5.2277,5.2291,5.2181,5.2356,5.2664,5.2696,5.2306,5.2302,5.2298,0,5.1149,5.1353,5.1526,5.1578,5.1695,5.1776,5.1828,5.1917,5.1994,5.2099,5.2149,5.2272,5.2338,5.2433,5.2461,5.2388,5.2668,5.2574,5.2689,5.2689,5.2748,5.2744,5.3069,5.2795,5.2795,5.2794,5.2794,0,5.141,5.1561,5.1607,5.1714,5.1882,5.1901,5.2067,5.2115,5.2194,5.2308,5.2294,5.2403,5.2434,5.2548,5.2571,5.2739,5.277,5.2791,5.2795,5.2791,5.2788,5.2833,5.2818,5.2803,5.2801,5.2799,5.2798,0,5.1638,5.1676,5.1862,5.1956,5.1983,5.2102,5.2183,5.2285,5.2321,5.2466,5.2502,5.2559,5.2692,5.273,5.2891,5.2906,5.3102,5.3093,5.3069,5.3068,5.3181,5.3168,5.3545,5.3594,5.329,5.3293,5.3295,0,5.1801,5.1916,5.2021,5.2096,5.2151,5.2273,5.235,5.2373,5.2454,5.257,5.2658,5.2788,5.2894,5.3107,5.3164,5.3286,5.3278,5.3402,5.3297,5.3288,5.3277,5.3269,5.3279,5.3421,5.3424,5.3427,5.3429,0,5.2085,5.2097,5.2208,5.2326,5.2418,5.2512,5.2602,5.2665,5.27,5.2792,5.2926,5.3008,5.317,5.3299,5.3422,5.3477,5.3459,5.3462,5.3494,5.349,5.347,5.348,5.312,5.3453,5.345,5.3449,5.3447,5.3446,5.2284,5.2384,5.2473,5.2596,5.2666,5.275,5.2849,5.2897,5.3009,5.3141,5.3148,5.3294,5.3384,5.3547,5.3608,5.3722,5.3685,5.3734,5.3745,5.3756,5.3764,5.3454,5.3745,5.3744,5.3744,5.3743,5.3743,0,5.2565,5.262,5.2734,5.2859,5.2956,5.2929,5.3027,5.311,5.3237,5.3322,5.3425,5.3579,5.3704,5.3769,5.3893,5.3972,5.3966,5.4003,5.3997,5.4009,5.3791,5.3749,5.4005,5.4005,5.4005,5.4005,5.4005,5.4005,5.2723,5.2889,5.2911,5.3112,5.3166,5.3307,5.3364,5.3441,5.3509,5.368,5.3783,5.3824,5.3901,5.403,5.4143,5.4159,5.4204,5.4245,5.4257,5.4052,5.4025,5.3999,5.3959,5.4256,5.4256,5.4464,5.4466,5.4468]},{"header":{"parameterUnit":"m.s-1","parameterCategory":1,"la1":30.2991,"la2":30.254,"lo1":-89.0895,"lo2":-89.0444,"dy":0.0017,"dx":0.0017,"nx":28,"ny":28,"refTime":"2024-09-27T21:00:00:Z","depth":0,"parameterNumber":3,"parameterNumberName":"V-component_of_WINDS"},"data":[0,0,0,0,0,0,0,0,0,0,0,0,0,0,0,0,0,0,0,0,0,0,0,0,0,0,0,0,0,0,0,0,0,0,0,0,0,0,0,0,0,0,0,0,0,0,0,0,0,0,0,0,0,0,0,0,0,0,1.7463,1.7464,0,1.7546,1.7547,1.7548,1.7516,1.7514,1.7512,1.7511,1.7598,1.7602,1.7606,0,0,0,0,0,0,0,0,0,0,0,0,0,1.7278,1.7281,1.7463,1.7464,1.7465,1.7546,1.7547,1.7548,1.7517,1.7514,1.7512,1.751,1.7597,1.7602,1.7607,0,0,0,0,0,0,0,0,0,0,0,0,0,1.7359,1.7282,1.7463,1.7459,1.7459,1.7546,1.7547,1.7549,1.7517,1.7514,1.7511,1.7509,1.7595,1.7601,1.7607,1.7703,0,0,1.7626,1.7629,0,0,0,0,0,0,0,0,1.7355,1.7366,1.7458,1.7459,1.746,1.7518,1.7514,1.7601,1.7518,1.7495,1.751,1.7507,1.7574,1.7582,1.7604,1.7707,1.7711,1.7627,1.763,1.7633,1.7635,0,0,0,0,0,0,0,1.7349,1.7362,1.7496,1.746,1.7461,1.7453,1.7462,1.753,1.755,1.7497,1.7495,1.7505,1.7574,1.7598,1.7605,1.7712,1.7626,1.7632,1.7636,1.7638,1.7898,1.7902,0,0,0,0,0,0,1.7343,1.7358,1.7493,1.7498,1.7399,1.7459,1.7468,1.7502,1.7549,1.7553,1.7507,1.7503,1.7589,1.7598,1.7608,1.7724,1.7633,1.7639,1.7642,1.7895,1.7899,1.7903,0,0,0,0,0,0,1.7339,1.7355,1.749,1.7428,1.7444,1.7465,1.7503,1.7505,1.7529,1.7557,1.756,1.7528,1.7587,1.76,1.768,1.7727,1.7642,1.7647,1.7892,1.7897,1.7901,1.7956,0,0,0,0,0,0,1.7334,1.7354,1.7391,1.7429,1.7448,1.756,1.7506,1.7509,1.754,1.7535,1.7577,1.7582,1.7585,1.7671,1.7686,1.7734,1.7652,1.7887,1.7894,1.7899,1.795,1.7962,1.7972,0,0,0,0,0,1.7327,1.7403,1.7393,1.7409,1.7494,1.7562,1.7573,1.7576,1.7544,1.7581,1.7598,1.758,1.7719,1.7679,1.7696,1.7746,1.7885,1.7892,1.7899,1.7945,1.796,1.7972,0,0,0,0,0,0,1.7372,1.7408,1.7397,1.7487,1.7522,1.7557,1.7604,1.7591,1.7636,1.763,1.7631,1.7641,1.7723,1.7743,1.7698,1.7841,1.7797,1.7808,1.7826,1.784,1.7851,1.7845,1.7657,0,0,0,0,0,1.7391,1.7444,1.7473,1.755,1.7568,1.7583,1.7613,1.7611,1.7648,1.7662,1.7686,1.7722,1.7773,1.7808,1.7857,1.7952,1.7961,1.7995,1.8006,1.8015,1.8025,1.8076,1.8092,1.7926,1.7926,1.7926,0,0,1.7434,1.746,1.7494,1.756,1.7586,1.7641,1.7596,1.7655,1.7696,1.7672,1.7749,1.7767,1.7807,1.7895,1.7935,1.7914,1.8072,1.8024,1.8031,1.8036,1.8085,1.8101,1.8115,1.7931,1.793,1.793,0,0,1.7539,1.7564,1.7631,1.7658,1.7698,1.7708,1.7724,1.776,1.7771,1.7848,1.7831,1.7879,1.7968,1.7998,1.8024,1.8139,1.8125,1.8155,1.8214,1.8264,1.8277,1.8289,1.833,1.8345,1.8165,1.8165,1.8165,0,1.7587,1.7668,1.7667,1.7728,1.7758,1.7737,1.7805,1.7831,1.7886,1.7907,1.7882,1.7993,1.8018,1.8113,1.8141,1.8163,1.8182,1.8151,1.8275,1.8287,1.8298,1.8337,1.8353,1.8168,1.8168,1.8167,1.8167,0,1.7725,1.7781,1.783,1.7883,1.7918,1.7982,1.7991,1.8027,1.8022,1.8034,1.8112,1.8142,1.8196,1.8218,1.8215,1.8313,1.8298,1.8274,1.823,1.8317,1.8354,1.8369,1.8173,1.8172,1.8171,1.817,0,0,1.7862,1.7912,1.793,1.7953,1.7996,1.8039,1.8102,1.8155,1.8185,1.8223,1.8277,1.8351,1.8329,1.836,1.8359,1.8403,1.8492,1.8373,1.8374,1.8395,1.8602,1.8621,1.8638,1.8482,1.8485,1.8487,1.8599,0,1.7971,1.8081,1.8081,1.8183,1.8235,1.8215,1.827,1.8302,1.8315,1.8361,1.8375,1.8428,1.8395,1.8413,1.8455,1.8472,1.8534,1.8464,1.8532,1.8535,1.8524,1.8658,1.8678,1.8782,1.8613,1.8616,1.8618,0,1.8113,1.8155,1.8261,1.8296,1.8317,1.8367,1.8415,1.8459,1.8495,1.85,1.8534,1.8526,1.859,1.8543,1.8631,1.8584,1.8612,1.8624,1.8628,1.8636,1.8582,1.867,1.8815,1.8831,1.864,1.8639,1.8637,0,1.8203,1.8286,1.836,1.8381,1.8422,1.8457,1.8476,1.8509,1.854,1.8582,1.8603,1.8651,1.8679,1.8717,1.8722,1.8687,1.8812,1.8765,1.8819,1.8819,1.8848,1.8846,1.9001,1.8864,1.8864,1.8863,1.8863,0,1.8325,1.8392,1.8401,1.8447,1.852,1.852,1.8593,1.8609,1.8638,1.8687,1.8673,1.8719,1.8723,1.8771,1.8776,1.8849,1.8861,1.8868,1.8869,1.887,1.8869,1.8889,1.8883,1.8867,1.8867,1.8866,1.8865,0,1.8439,1.8448,1.8528,1.856,1.8569,1.8622,1.865,1.8694,1.8704,1.8766,1.8781,1.8798,1.8853,1.8862,1.8927,1.893,1.9018,1.9011,1.9006,1.9005,1.906,1.9055,1.9233,1.9257,1.9104,1.9105,1.9106,0,1.8517,1.8567,1.8605,1.8636,1.8657,1.8707,1.8739,1.874,1.8774,1.8818,1.8856,1.891,1.8953,1.9042,1.9061,1.911,1.9105,1.9164,1.9112,1.9112,1.9107,1.9104,1.9109,1.9174,1.9176,1.9177,1.9178,0,1.8655,1.8656,1.8702,1.8749,1.8787,1.8824,1.886,1.8886,1.8892,1.893,1.8986,1.902,1.9085,1.9139,1.9188,1.9208,1.9195,1.9194,1.921,1.9212,1.9207,1.9211,1.9034,1.9191,1.9189,1.9188,1.9188,1.9187,1.8754,1.8797,1.883,1.8881,1.8908,1.8941,1.8983,1.8999,1.9045,1.9098,1.9096,1.9158,1.9192,1.9256,1.9279,1.9328,1.9309,1.9331,1.9337,1.9342,1.9348,1.9199,1.9336,1.9336,1.9336,1.9335,1.9335,0,1.8891,1.8911,1.8958,1.9007,1.9047,1.903,1.9068,1.9103,1.9157,1.9189,1.9232,1.9296,1.9347,1.9369,1.942,1.9454,1.9449,1.9468,1.9466,1.9471,1.9362,1.9344,1.9471,1.9471,1.9471,1.9471,1.9471,1.9471,1.8967,1.904,1.9046,1.9132,1.9151,1.9211,1.9234,1.9264,1.929,1.9362,1.9405,1.9418,1.9446,1.9499,1.9545,1.955,1.957,1.9591,1.9594,1.9492,1.9478,1.9465,1.9448,1.9595,1.9595,1.9699,1.97,1.97]}]]